Time,TemperatureF,DewpointF,PressureIn,WindDirection,WindDirectionDegrees,WindSpeedMPH,WindSpeedGustMPH,Humidity,HourlyPrecipIn,Conditions,Clouds,dailyrainin,SoftwareType,DateUTC
2013-03-09 00:02:00,47.6,43.0,30.04,WSW,250,8.0,0.0,84,0.00,,,0.00,WeatherTracker,2013-03-09 08:02:00,
2013-03-09 00:07:00,47.6,42.7,30.04,WSW,245,7.0,0.0,83,0.00,,,0.00,WeatherTracker,2013-03-09 08:07:00,
2013-03-09 00:12:00,47.6,42.7,30.04,WSW,257,7.0,0.0,83,0.00,,,0.00,WeatherTracker,2013-03-09 08:12:00,
2013-03-09 00:17:00,47.6,42.7,30.04,WSW,246,3.0,0.0,83,0.00,,,0.00,WeatherTracker,2013-03-09 08:17:00,
2013-03-09 00:22:00,47.6,42.4,30.04,WSW,258,4.0,0.0,82,0.00,,,0.00,WeatherTracker,2013-03-09 08:22:00,
2013-03-09 00:27:00,47.6,42.4,30.04,WNW,301,3.0,0.0,82,0.00,,,0.00,WeatherTracker,2013-03-09 08:27:00,
2013-03-09 00:32:00,47.6,42.4,30.04,WSW,249,4.0,0.0,82,0.00,,,0.00,WeatherTracker,2013-03-09 08:32:00,
2013-03-09 00:37:00,47.6,42.4,30.05,WNW,286,1.0,0.0,82,0.00,,,0.00,WeatherTracker,2013-03-09 08:37:00,
2013-03-09 00:42:00,47.6,42.4,30.05,WNW,288,4.0,0.0,82,0.00,,,0.00,WeatherTracker,2013-03-09 08:42:00,
2013-03-09 00:47:00,47.5,42.0,30.05,WSW,243,7.0,0.0,81,0.00,,,0.00,WeatherTracker,2013-03-09 08:47:00,
2013-03-09 00:52:00,47.5,42.3,30.06,WNW,286,4.0,0.0,82,0.00,,,0.00,WeatherTracker,2013-03-09 08:52:00,
2013-03-09 00:57:00,47.5,42.3,30.06,West,269,3.0,0.0,82,0.00,,,0.00,WeatherTracker,2013-03-09 08:57:00,
2013-03-09 01:02:00,47.4,42.2,30.06,WNW,285,4.0,0.0,82,0.00,,,0.00,WeatherTracker,2013-03-09 09:02:00,
2013-03-09 01:07:00,47.3,42.1,30.07,WSW,240,2.0,0.0,82,0.00,,,0.00,WeatherTracker,2013-03-09 09:07:00,
2013-03-09 01:12:00,47.3,41.8,30.07,WNW,288,1.0,0.0,81,0.00,,,0.00,WeatherTracker,2013-03-09 09:12:00,
2013-03-09 01:17:00,47.3,42.1,30.07,WNW,290,4.0,0.0,82,0.00,,,0.00,WeatherTracker,2013-03-09 09:17:00,
2013-03-09 01:22:00,47.2,42.0,30.07,WNW,288,4.0,0.0,82,0.00,,,0.00,WeatherTracker,2013-03-09 09:22:00,
2013-03-09 01:27:00,47.2,42.0,30.07,WSW,252,4.0,0.0,82,0.00,,,0.00,WeatherTracker,2013-03-09 09:27:00,
2013-03-09 01:32:00,47.3,42.1,30.07,WNW,295,2.0,0.0,82,0.00,,,0.00,WeatherTracker,2013-03-09 09:32:00,
2013-03-09 01:37:00,47.3,41.8,30.08,WNW,285,2.0,0.0,81,0.00,,,0.00,WeatherTracker,2013-03-09 09:37:00,
2013-03-09 01:43:00,47.3,41.8,30.07,West,273,4.0,0.0,81,0.00,,,0.00,WeatherTracker,2013-03-09 09:43:00,
2013-03-09 01:48:00,47.3,41.8,30.08,WNW,288,3.0,0.0,81,0.00,,,0.00,WeatherTracker,2013-03-09 09:48:00,
2013-03-09 01:53:00,47.3,41.8,30.08,WNW,299,3.0,0.0,81,0.00,,,0.00,WeatherTracker,2013-03-09 09:53:00,
2013-03-09 01:58:00,47.2,41.7,30.08,West,280,2.0,0.0,81,0.00,,,0.00,WeatherTracker,2013-03-09 09:58:00,
2013-03-09 02:03:00,47.2,41.7,30.07,West,276,2.0,0.0,81,0.00,,,0.00,WeatherTracker,2013-03-09 10:03:00,
2013-03-09 02:08:00,47.1,41.6,30.07,WSW,248,3.0,0.0,81,0.00,,,0.00,WeatherTracker,2013-03-09 10:08:00,
2013-03-09 02:13:00,47.0,41.5,30.07,WSW,243,2.0,0.0,81,0.00,,,0.00,WeatherTracker,2013-03-09 10:13:00,
2013-03-09 02:18:00,46.9,41.7,30.07,SW,229,0.0,0.0,82,0.00,,,0.00,WeatherTracker,2013-03-09 10:18:00,
2013-03-09 02:23:00,46.7,41.5,30.07,West,269,0.0,0.0,82,0.00,,,0.00,WeatherTracker,2013-03-09 10:23:00,
2013-03-09 02:28:00,46.6,41.4,30.07,WSW,251,0.0,0.0,82,0.00,,,0.00,WeatherTracker,2013-03-09 10:28:00,
2013-03-09 02:33:00,46.5,41.3,30.07,WNW,290,0.0,0.0,82,0.00,,,0.00,WeatherTracker,2013-03-09 10:33:00,
2013-03-09 02:38:00,46.4,41.2,30.07,WNW,293,0.0,0.0,82,0.00,,,0.00,WeatherTracker,2013-03-09 10:38:00,
2013-03-09 02:43:00,46.2,41.0,30.07,WNW,292,0.0,0.0,82,0.00,,,0.00,WeatherTracker,2013-03-09 10:43:00,
2013-03-09 02:48:00,46.0,40.8,30.07,WNW,293,0.0,0.0,82,0.00,,,0.00,WeatherTracker,2013-03-09 10:48:00,
2013-03-09 02:53:00,46.0,40.8,30.07,WNW,292,0.0,0.0,82,0.00,,,0.00,WeatherTracker,2013-03-09 10:53:00,
2013-03-09 02:58:00,45.8,40.6,30.07,WNW,292,0.0,0.0,82,0.00,,,0.00,WeatherTracker,2013-03-09 10:58:00,
2013-03-09 03:03:00,45.3,40.1,30.07,WNW,293,0.0,0.0,82,0.00,,,0.00,WeatherTracker,2013-03-09 11:03:00,
2013-03-09 03:08:00,45.2,40.7,30.07,WSW,239,0.0,0.0,84,0.00,,,0.00,WeatherTracker,2013-03-09 11:08:00,
2013-03-09 03:13:00,45.3,40.8,30.07,SSW,201,0.0,0.0,84,0.00,,,0.00,WeatherTracker,2013-03-09 11:13:00,
2013-03-09 03:18:00,45.1,40.3,30.07,SSW,201,0.0,0.0,83,0.00,,,0.00,WeatherTracker,2013-03-09 11:18:00,
2013-03-09 03:23:00,44.9,40.4,30.07,SSW,201,0.0,0.0,84,0.00,,,0.00,WeatherTracker,2013-03-09 11:23:00,
2013-03-09 03:28:00,45.0,40.5,30.07,SSW,201,0.0,0.0,84,0.00,,,0.00,WeatherTracker,2013-03-09 11:28:00,
2013-03-09 03:33:00,45.0,40.5,30.08,SW,215,1.0,0.0,84,0.00,,,0.00,WeatherTracker,2013-03-09 11:33:00,
2013-03-09 03:38:00,45.0,40.5,30.08,SW,231,0.0,0.0,84,0.00,,,0.00,WeatherTracker,2013-03-09 11:38:00,
2013-03-09 03:43:00,44.9,40.4,30.09,SW,232,0.0,0.0,84,0.00,,,0.00,WeatherTracker,2013-03-09 11:43:00,
2013-03-09 03:48:00,44.8,40.3,30.09,SW,232,0.0,0.0,84,0.00,,,0.00,WeatherTracker,2013-03-09 11:48:00,
2013-03-09 03:53:00,44.6,40.1,30.09,SW,231,0.0,0.0,84,0.00,,,0.00,WeatherTracker,2013-03-09 11:53:00,
2013-03-09 03:59:00,44.3,39.8,30.10,SW,232,0.0,0.0,84,0.00,,,0.00,WeatherTracker,2013-03-09 11:59:00,
2013-03-09 04:04:00,44.3,40.1,30.10,SW,232,0.0,0.0,85,0.00,,,0.00,WeatherTracker,2013-03-09 12:04:00,
2013-03-09 04:08:00,44.3,40.1,30.11,SW,232,0.0,0.0,85,0.00,,,0.00,WeatherTracker,2013-03-09 12:08:00,
2013-03-09 04:14:00,44.5,40.6,30.11,WSW,245,0.0,0.0,86,0.00,,,0.00,WeatherTracker,2013-03-09 12:14:00,
2013-03-09 04:19:00,44.7,40.5,30.11,West,262,0.0,0.0,85,0.00,,,0.00,WeatherTracker,2013-03-09 12:19:00,
2013-03-09 04:24:00,44.7,40.5,30.11,West,262,0.0,0.0,85,0.00,,,0.00,WeatherTracker,2013-03-09 12:24:00,
2013-03-09 04:29:00,44.7,40.5,30.12,West,262,0.0,0.0,85,0.00,,,0.00,WeatherTracker,2013-03-09 12:29:00,
2013-03-09 04:34:00,44.7,40.5,30.12,West,262,0.0,0.0,85,0.00,,,0.00,WeatherTracker,2013-03-09 12:34:00,
2013-03-09 04:39:00,44.9,40.7,30.12,West,263,0.0,0.0,85,0.00,,,0.00,WeatherTracker,2013-03-09 12:39:00,
2013-03-09 04:44:00,44.7,40.2,30.13,West,263,0.0,0.0,84,0.00,,,0.00,WeatherTracker,2013-03-09 12:44:00,
2013-03-09 04:49:00,44.7,40.8,30.13,SW,229,0.0,0.0,86,0.00,,,0.00,WeatherTracker,2013-03-09 12:49:00,
2013-03-09 04:54:00,44.6,40.7,30.14,SW,229,0.0,0.0,86,0.00,,,0.00,WeatherTracker,2013-03-09 12:54:00,
2013-03-09 04:59:00,44.8,40.9,30.14,West,278,0.0,0.0,86,0.00,,,0.00,WeatherTracker,2013-03-09 12:59:00,
2013-03-09 05:04:00,45.1,41.2,30.14,WSW,256,0.0,0.0,86,0.00,,,0.00,WeatherTracker,2013-03-09 13:04:00,
2013-03-09 05:09:00,45.1,41.2,30.14,WSW,253,0.0,0.0,86,0.00,,,0.00,WeatherTracker,2013-03-09 13:09:00,
2013-03-09 05:14:00,45.2,41.3,30.15,WSW,242,0.0,0.0,86,0.00,,,0.00,WeatherTracker,2013-03-09 13:14:00,
2013-03-09 05:19:00,45.2,41.3,30.15,WSW,245,1.0,0.0,86,0.00,,,0.00,WeatherTracker,2013-03-09 13:19:00,
2013-03-09 05:24:00,45.2,41.0,30.15,SW,218,1.0,0.0,85,0.00,,,0.00,WeatherTracker,2013-03-09 13:24:00,
2013-03-09 05:29:00,45.1,40.9,30.16,SE,124,0.0,0.0,85,0.00,,,0.00,WeatherTracker,2013-03-09 13:29:00,
2013-03-09 05:34:00,45.3,41.1,30.16,ESE,107,0.0,0.0,85,0.00,,,0.00,WeatherTracker,2013-03-09 13:34:00,
2013-03-09 05:39:00,45.3,41.1,30.16,ENE,75,0.0,0.0,85,0.00,,,0.00,WeatherTracker,2013-03-09 13:39:00,
2013-03-09 05:44:00,45.4,40.9,30.17,ENE,70,0.0,0.0,84,0.00,,,0.00,WeatherTracker,2013-03-09 13:44:00,
2013-03-09 05:49:00,45.5,41.0,30.17,NNW,346,0.0,0.0,84,0.00,,,0.00,WeatherTracker,2013-03-09 13:49:00,
2013-03-09 05:54:00,45.4,40.9,30.17,NNW,346,0.0,0.0,84,0.00,,,0.00,WeatherTracker,2013-03-09 13:54:00,
2013-03-09 06:00:00,45.3,40.8,30.17,NW,305,0.0,0.0,84,0.00,,,0.00,WeatherTracker,2013-03-09 14:00:00,
2013-03-09 06:05:00,45.2,40.7,30.18,NW,305,0.0,0.0,84,0.00,,,0.00,WeatherTracker,2013-03-09 14:05:00,
2013-03-09 06:10:00,45.1,40.9,30.18,NW,305,0.0,0.0,85,0.00,,,0.00,WeatherTracker,2013-03-09 14:10:00,
2013-03-09 06:15:00,45.0,40.8,30.18,NW,305,0.0,0.0,85,0.00,,,0.00,WeatherTracker,2013-03-09 14:15:00,
2013-03-09 06:20:00,44.9,40.7,30.18,NW,305,0.0,0.0,85,0.00,,,0.00,WeatherTracker,2013-03-09 14:20:00,
2013-03-09 06:25:00,44.9,40.7,30.18,WNW,286,0.0,0.0,85,0.00,,,0.00,WeatherTracker,2013-03-09 14:25:00,
2013-03-09 06:30:00,44.8,40.6,30.18,WSW,250,0.0,0.0,85,0.00,,,0.00,WeatherTracker,2013-03-09 14:30:00,
2013-03-09 06:35:00,44.7,40.5,30.19,WSW,249,1.0,0.0,85,0.00,,,0.00,WeatherTracker,2013-03-09 14:35:00,
2013-03-09 06:40:00,44.8,40.9,30.19,West,260,1.0,0.0,86,0.00,,,0.00,WeatherTracker,2013-03-09 14:40:00,
2013-03-09 06:45:00,44.8,40.9,30.19,WSW,249,0.0,0.0,86,0.00,,,0.00,WeatherTracker,2013-03-09 14:45:00,
2013-03-09 06:50:00,45.0,41.1,30.19,West,274,1.0,0.0,86,0.00,,,0.00,WeatherTracker,2013-03-09 14:50:00,
2013-03-09 06:55:00,45.2,41.3,30.20,West,274,0.0,0.0,86,0.00,,,0.00,WeatherTracker,2013-03-09 14:55:00,
2013-03-09 07:00:00,45.5,41.6,30.20,West,274,0.0,0.0,86,0.00,,,0.00,WeatherTracker,2013-03-09 15:00:00,
2013-03-09 07:05:00,45.9,42.0,30.20,West,274,0.0,0.0,86,0.00,,,0.00,WeatherTracker,2013-03-09 15:05:00,
2013-03-09 07:10:00,46.3,42.3,30.20,West,274,0.0,0.0,86,0.00,,,0.00,WeatherTracker,2013-03-09 15:10:00,
2013-03-09 07:15:00,46.8,42.8,30.20,West,274,0.0,0.0,86,0.00,,,0.00,WeatherTracker,2013-03-09 15:15:00,
2013-03-09 07:20:00,47.3,43.0,30.20,West,274,0.0,0.0,85,0.00,,,0.00,WeatherTracker,2013-03-09 15:20:00,
2013-03-09 07:25:00,47.6,43.3,30.20,West,274,0.0,0.0,85,0.00,,,0.00,WeatherTracker,2013-03-09 15:25:00,
2013-03-09 07:30:00,48.5,43.9,30.21,West,274,0.0,0.0,84,0.00,,,0.00,WeatherTracker,2013-03-09 15:30:00,
2013-03-09 07:35:00,49.1,44.8,30.21,West,274,0.0,0.0,85,0.00,,,0.00,WeatherTracker,2013-03-09 15:35:00,
2013-03-09 07:40:00,49.7,44.4,30.21,East,84,0.0,0.0,82,0.00,,,0.00,WeatherTracker,2013-03-09 15:40:00,
2013-03-09 07:45:00,50.1,44.8,30.21,East,84,0.0,0.0,82,0.00,,,0.00,WeatherTracker,2013-03-09 15:45:00,
2013-03-09 07:50:00,50.5,44.6,30.21,East,89,0.0,0.0,80,0.00,,,0.00,WeatherTracker,2013-03-09 15:50:00,
2013-03-09 07:56:00,51.3,45.3,30.22,East,89,0.0,0.0,80,0.00,,,0.00,WeatherTracker,2013-03-09 15:56:00,
2013-03-09 08:01:00,51.8,44.1,30.22,ENE,59,0.0,0.0,75,0.00,,,0.00,WeatherTracker,2013-03-09 16:01:00,
2013-03-09 08:06:00,51.2,42.8,30.22,NW,325,4.0,0.0,73,0.00,,,0.00,WeatherTracker,2013-03-09 16:06:00,
2013-03-09 08:11:00,50.8,42.5,30.22,NNE,19,3.0,0.0,73,0.00,,,0.00,WeatherTracker,2013-03-09 16:11:00,
2013-03-09 08:16:00,50.5,42.2,30.22,North,356,4.0,0.0,73,0.00,,,0.00,WeatherTracker,2013-03-09 16:16:00,
2013-03-09 08:21:00,50.5,42.2,30.22,WNW,293,2.0,0.0,73,0.00,,,0.00,WeatherTracker,2013-03-09 16:21:00,
2013-03-09 08:26:00,50.7,42.7,30.22,NW,325,3.0,0.0,74,0.00,,,0.00,WeatherTracker,2013-03-09 16:26:00,
2013-03-09 08:31:00,50.7,42.7,30.23,NW,306,1.0,0.0,74,0.00,,,0.00,WeatherTracker,2013-03-09 16:31:00,
2013-03-09 08:36:00,51.2,42.8,30.23,NW,323,2.0,0.0,73,0.00,,,0.00,WeatherTracker,2013-03-09 16:36:00,
2013-03-09 08:41:00,51.0,42.3,30.23,WNW,291,3.0,0.0,72,0.00,,,0.00,WeatherTracker,2013-03-09 16:41:00,
2013-03-09 08:46:00,51.0,42.7,30.24,WNW,301,3.0,0.0,73,0.00,,,0.00,WeatherTracker,2013-03-09 16:46:00,
2013-03-09 08:51:00,51.2,42.8,30.24,NW,315,5.0,0.0,73,0.00,,,0.00,WeatherTracker,2013-03-09 16:51:00,
2013-03-09 08:56:00,51.4,43.0,30.24,NNE,27,3.0,0.0,73,0.00,,,0.00,WeatherTracker,2013-03-09 16:56:00,
2013-03-09 09:01:00,51.5,43.1,30.24,WNW,290,2.0,0.0,73,0.00,,,0.00,WeatherTracker,2013-03-09 17:01:00,
2013-03-09 09:06:00,52.0,42.9,30.24,NW,309,4.0,0.0,71,0.00,,,0.00,WeatherTracker,2013-03-09 17:06:00,
2013-03-09 09:11:00,51.9,43.2,30.24,WNW,294,2.0,0.0,72,0.00,,,0.00,WeatherTracker,2013-03-09 17:11:00,
2013-03-09 09:16:00,51.8,42.3,30.24,NNW,341,0.0,0.0,70,0.00,,,0.00,WeatherTracker,2013-03-09 17:16:00,
2013-03-09 09:21:00,52.4,43.3,30.25,SSW,211,0.0,0.0,71,0.00,,,0.00,WeatherTracker,2013-03-09 17:21:00,
2013-03-09 09:26:00,52.8,42.5,30.25,WNW,298,4.0,0.0,68,0.00,,,0.00,WeatherTracker,2013-03-09 17:26:00,
2013-03-09 09:31:00,53.2,42.9,30.25,WNW,297,6.0,0.0,68,0.00,,,0.00,WeatherTracker,2013-03-09 17:31:00,
2013-03-09 09:36:00,53.0,42.3,30.25,WNW,302,3.0,0.0,67,0.00,,,0.00,WeatherTracker,2013-03-09 17:36:00,
2013-03-09 09:41:00,53.0,42.7,30.25,WNW,298,1.0,0.0,68,0.00,,,0.00,WeatherTracker,2013-03-09 17:41:00,
2013-03-09 09:46:00,53.3,43.0,30.25,North,4,3.0,0.0,68,0.00,,,0.00,WeatherTracker,2013-03-09 17:46:00,
2013-03-09 09:51:00,53.7,43.0,30.25,SW,221,1.0,0.0,67,0.00,,,0.00,WeatherTracker,2013-03-09 17:51:00,
2013-03-09 09:56:00,54.3,43.2,30.25,NW,321,1.0,0.0,66,0.00,,,0.00,WeatherTracker,2013-03-09 17:56:00,
2013-03-09 10:01:00,54.3,42.8,30.25,NW,313,2.0,0.0,65,0.00,,,0.00,WeatherTracker,2013-03-09 18:01:00,
2013-03-09 10:06:00,55.2,43.2,30.25,NW,318,0.0,0.0,64,0.00,,,0.00,WeatherTracker,2013-03-09 18:06:00,
2013-03-09 10:12:00,55.8,43.0,30.25,West,267,1.0,0.0,62,0.00,,,0.00,WeatherTracker,2013-03-09 18:12:00,
2013-03-09 10:17:00,55.9,43.1,30.25,NNW,336,2.0,0.0,62,0.00,,,0.00,WeatherTracker,2013-03-09 18:17:00,
2013-03-09 10:22:00,57.0,43.3,30.25,ESE,110,0.0,0.0,60,0.00,,,0.00,WeatherTracker,2013-03-09 18:22:00,
2013-03-09 10:27:00,57.6,42.5,30.25,WNW,291,8.0,0.0,57,0.00,,,0.00,WeatherTracker,2013-03-09 18:27:00,
2013-03-09 10:32:00,57.0,41.5,30.25,WNW,295,0.0,0.0,56,0.00,,,0.00,WeatherTracker,2013-03-09 18:32:00,
2013-03-09 10:37:00,57.6,42.9,30.25,West,269,1.0,0.0,58,0.00,,,0.00,WeatherTracker,2013-03-09 18:37:00,
2013-03-09 10:42:00,57.9,42.8,30.25,WNW,292,2.0,0.0,57,0.00,,,0.00,WeatherTracker,2013-03-09 18:42:00,
2013-03-09 10:47:00,57.9,42.8,30.26,West,265,3.0,0.0,57,0.00,,,0.00,WeatherTracker,2013-03-09 18:47:00,
2013-03-09 10:52:00,57.9,42.8,30.26,WSW,246,6.0,0.0,57,0.00,,,0.00,WeatherTracker,2013-03-09 18:52:00,
2013-03-09 10:57:00,57.5,42.8,30.26,SW,214,4.0,0.0,58,0.00,,,0.00,WeatherTracker,2013-03-09 18:57:00,
2013-03-09 11:02:00,57.6,42.5,30.26,NW,304,3.0,0.0,57,0.00,,,0.00,WeatherTracker,2013-03-09 19:02:00,
2013-03-09 11:07:00,58.0,42.9,30.26,ENE,61,0.0,0.0,57,0.00,,,0.00,WeatherTracker,2013-03-09 19:07:00,
2013-03-09 11:12:00,57.9,42.8,30.26,WSW,251,3.0,0.0,57,0.00,,,0.00,WeatherTracker,2013-03-09 19:12:00,
2013-03-09 11:17:00,58.0,41.4,30.27,WNW,287,1.0,0.0,54,0.00,,,0.00,WeatherTracker,2013-03-09 19:17:00,
2013-03-09 11:22:00,57.8,42.7,30.27,WSW,253,4.0,0.0,57,0.00,,,0.00,WeatherTracker,2013-03-09 19:22:00,
2013-03-09 11:27:00,57.9,42.8,30.27,WSW,246,7.0,0.0,57,0.00,,,0.00,WeatherTracker,2013-03-09 19:27:00,
2013-03-09 11:32:00,58.1,42.5,30.27,West,280,1.0,0.0,56,0.00,,,0.00,WeatherTracker,2013-03-09 19:32:00,
2013-03-09 11:37:00,58.5,41.9,30.27,WNW,284,5.0,0.0,54,0.00,,,0.00,WeatherTracker,2013-03-09 19:37:00,
2013-03-09 11:42:00,58.2,42.6,30.27,WNW,292,2.0,0.0,56,0.00,,,0.00,WeatherTracker,2013-03-09 19:42:00,
2013-03-09 11:47:00,57.8,42.7,30.27,West,264,1.0,0.0,57,0.00,,,0.00,WeatherTracker,2013-03-09 19:47:00,
2013-03-09 11:52:00,58.4,42.3,30.27,WNW,295,4.0,0.0,55,0.00,,,0.00,WeatherTracker,2013-03-09 19:52:00,
2013-03-09 11:57:00,58.5,42.9,30.27,West,281,6.0,0.0,56,0.00,,,0.00,WeatherTracker,2013-03-09 19:57:00,
2013-03-09 12:02:00,58.7,42.6,30.26,WNW,294,2.0,0.0,55,0.00,,,0.00,WeatherTracker,2013-03-09 20:02:00,
2013-03-09 12:07:00,59.3,42.7,30.26,WNW,290,3.0,0.0,54,0.00,,,0.00,WeatherTracker,2013-03-09 20:07:00,
2013-03-09 12:13:00,59.9,43.7,30.27,NNW,335,0.0,0.0,55,0.00,,,0.00,WeatherTracker,2013-03-09 20:13:00,
2013-03-09 12:18:00,60.0,43.8,30.27,WSW,251,5.0,0.0,55,0.00,,,0.00,WeatherTracker,2013-03-09 20:18:00,
2013-03-09 12:23:00,59.8,43.6,30.27,WSW,243,5.0,0.0,55,0.00,,,0.00,WeatherTracker,2013-03-09 20:23:00,
2013-03-09 12:28:00,59.7,43.0,30.27,WSW,256,2.0,0.0,54,0.00,,,0.00,WeatherTracker,2013-03-09 20:28:00,
2013-03-09 12:33:00,59.7,44.0,30.27,WSW,250,10.0,0.0,56,0.00,,,0.00,WeatherTracker,2013-03-09 20:33:00,
2013-03-09 12:38:00,59.2,44.0,30.27,WSW,238,6.0,0.0,57,0.00,,,0.00,WeatherTracker,2013-03-09 20:38:00,
2013-03-09 12:43:00,59.0,44.7,30.27,WNW,288,7.0,0.0,59,0.00,,,0.00,WeatherTracker,2013-03-09 20:43:00,
2013-03-09 12:48:00,59.1,44.8,30.27,West,262,5.0,0.0,59,0.00,,,0.00,WeatherTracker,2013-03-09 20:48:00,
2013-03-09 12:53:00,58.9,45.0,30.27,WNW,283,5.0,0.0,60,0.00,,,0.00,WeatherTracker,2013-03-09 20:53:00,
2013-03-09 12:58:00,58.7,45.3,30.26,WNW,302,6.0,0.0,61,0.00,,,0.00,WeatherTracker,2013-03-09 20:58:00,
2013-03-09 13:03:00,58.5,44.7,30.26,WNW,301,6.0,0.0,60,0.00,,,0.00,WeatherTracker,2013-03-09 21:03:00,
2013-03-09 13:08:00,59.1,45.7,30.26,West,269,6.0,0.0,61,0.00,,,0.00,WeatherTracker,2013-03-09 21:08:00,
2013-03-09 13:13:00,59.0,45.1,30.25,West,270,4.0,0.0,60,0.00,,,0.00,WeatherTracker,2013-03-09 21:13:00,
2013-03-09 13:18:00,58.2,45.2,30.26,WNW,288,7.0,0.0,62,0.00,,,0.00,WeatherTracker,2013-03-09 21:18:00,
2013-03-09 13:23:00,57.6,44.7,30.25,WNW,285,7.0,0.0,62,0.00,,,0.00,WeatherTracker,2013-03-09 21:23:00,
2013-03-09 13:28:00,57.9,45.0,30.25,WSW,245,13.0,0.0,62,0.00,,,0.00,WeatherTracker,2013-03-09 21:28:00,
2013-03-09 13:33:00,57.7,45.2,30.25,South,183,5.0,0.0,63,0.00,,,0.00,WeatherTracker,2013-03-09 21:33:00,
2013-03-09 13:38:00,57.5,44.6,30.25,WNW,297,4.0,0.0,62,0.00,,,0.00,WeatherTracker,2013-03-09 21:38:00,
2013-03-09 13:43:00,57.5,45.0,30.24,West,274,6.0,0.0,63,0.00,,,0.00,WeatherTracker,2013-03-09 21:43:00,
2013-03-09 13:48:00,57.5,46.2,30.24,WSW,239,4.0,0.0,66,0.00,,,0.00,WeatherTracker,2013-03-09 21:48:00,
2013-03-09 13:53:00,57.5,46.6,30.24,WNW,288,4.0,0.0,67,0.00,,,0.00,WeatherTracker,2013-03-09 21:53:00,
2013-03-09 13:58:00,57.5,47.0,30.25,WSW,239,13.0,0.0,68,0.00,,,0.00,WeatherTracker,2013-03-09 21:58:00,
2013-03-09 14:03:00,56.9,46.8,30.24,WSW,246,6.0,0.0,69,0.00,,,0.00,WeatherTracker,2013-03-09 22:03:00,
2013-03-09 14:09:00,57.3,46.8,30.24,WNW,284,9.0,0.0,68,0.00,,,0.00,WeatherTracker,2013-03-09 22:09:00,
2013-03-09 14:14:00,57.5,46.6,30.24,SW,226,6.0,0.0,67,0.00,,,0.00,WeatherTracker,2013-03-09 22:14:00,
2013-03-09 14:19:00,58.4,47.5,30.24,SSW,208,2.0,0.0,67,0.00,,,0.00,WeatherTracker,2013-03-09 22:19:00,
2013-03-09 14:24:00,59.2,47.0,30.24,West,281,9.0,0.0,64,0.00,,,0.00,WeatherTracker,2013-03-09 22:24:00,
2013-03-09 14:29:00,59.0,47.2,30.24,West,278,9.0,0.0,65,0.00,,,0.00,WeatherTracker,2013-03-09 22:29:00,
2013-03-09 14:34:00,58.9,47.2,30.24,WNW,301,3.0,0.0,65,0.00,,,0.00,WeatherTracker,2013-03-09 22:34:00,
2013-03-09 14:39:00,59.1,47.3,30.24,WNW,283,10.0,0.0,65,0.00,,,0.00,WeatherTracker,2013-03-09 22:39:00,
2013-03-09 14:44:00,58.9,46.7,30.24,WSW,253,12.0,0.0,64,0.00,,,0.00,WeatherTracker,2013-03-09 22:44:00,
2013-03-09 14:49:00,59.2,47.0,30.25,WSW,257,10.0,0.0,64,0.00,,,0.00,WeatherTracker,2013-03-09 22:49:00,
2013-03-09 14:54:00,59.1,46.1,30.24,WSW,248,11.0,0.0,62,0.00,,,0.00,WeatherTracker,2013-03-09 22:54:00,
2013-03-09 14:59:00,59.5,45.2,30.24,WSW,239,16.0,0.0,59,0.00,,,0.00,WeatherTracker,2013-03-09 22:59:00,
2013-03-09 15:04:00,59.5,45.6,30.24,WSW,252,10.0,0.0,60,0.00,,,0.00,WeatherTracker,2013-03-09 23:04:00,
2013-03-09 15:09:00,59.5,45.6,30.24,WSW,249,11.0,0.0,60,0.00,,,0.00,WeatherTracker,2013-03-09 23:09:00,
2013-03-09 15:14:00,59.3,46.3,30.24,WSW,250,13.0,0.0,62,0.00,,,0.00,WeatherTracker,2013-03-09 23:14:00,
2013-03-09 15:19:00,59.0,46.0,30.24,West,260,11.0,0.0,62,0.00,,,0.00,WeatherTracker,2013-03-09 23:19:00,
2013-03-09 15:24:00,58.6,46.0,30.24,WNW,291,12.0,0.0,63,0.00,,,0.00,WeatherTracker,2013-03-09 23:24:00,
2013-03-09 15:29:00,58.7,46.1,30.24,WSW,250,15.0,0.0,63,0.00,,,0.00,WeatherTracker,2013-03-09 23:29:00,
2013-03-09 15:34:00,59.0,45.6,30.24,West,264,2.0,0.0,61,0.00,,,0.00,WeatherTracker,2013-03-09 23:34:00,
2013-03-09 15:39:00,59.6,44.8,30.24,WSW,255,11.0,0.0,58,0.00,,,0.00,WeatherTracker,2013-03-09 23:39:00,
2013-03-09 15:44:00,59.9,44.6,30.24,West,269,5.0,0.0,57,0.00,,,0.00,WeatherTracker,2013-03-09 23:44:00,
2013-03-09 15:49:00,60.1,45.7,30.23,WSW,257,6.0,0.0,59,0.00,,,0.00,WeatherTracker,2013-03-09 23:49:00,
2013-03-09 15:54:00,59.7,46.2,30.23,SSW,211,6.0,0.0,61,0.00,,,0.00,WeatherTracker,2013-03-09 23:54:00,
2013-03-09 16:00:00,59.2,47.0,30.23,WNW,293,4.0,0.0,64,0.00,,,0.00,WeatherTracker,2013-03-10 00:00:00,
2013-03-09 16:05:00,58.4,46.3,30.23,WNW,284,4.0,0.0,64,0.00,,,0.00,WeatherTracker,2013-03-10 00:05:00,
2013-03-09 16:10:00,58.3,47.0,30.23,West,271,7.0,0.0,66,0.00,,,0.00,WeatherTracker,2013-03-10 00:10:00,
2013-03-09 16:15:00,58.6,46.9,30.23,WSW,255,11.0,0.0,65,0.00,,,0.00,WeatherTracker,2013-03-10 00:15:00,
2013-03-09 16:20:00,58.9,46.3,30.23,West,264,2.0,0.0,63,0.00,,,0.00,WeatherTracker,2013-03-10 00:20:00,
2013-03-09 16:25:00,59.2,46.2,30.23,West,274,8.0,0.0,62,0.00,,,0.00,WeatherTracker,2013-03-10 00:25:00,
2013-03-09 16:30:00,59.5,45.6,30.23,WNW,291,5.0,0.0,60,0.00,,,0.00,WeatherTracker,2013-03-10 00:30:00,
2013-03-09 16:35:00,59.5,44.7,30.23,WNW,288,7.0,0.0,58,0.00,,,0.00,WeatherTracker,2013-03-10 00:35:00,
2013-03-09 16:40:00,59.7,45.3,30.23,West,281,12.0,0.0,59,0.00,,,0.00,WeatherTracker,2013-03-10 00:40:00,
2013-03-09 16:45:00,59.3,45.4,30.23,West,281,13.0,0.0,60,0.00,,,0.00,WeatherTracker,2013-03-10 00:45:00,
2013-03-09 16:50:00,58.6,46.0,30.23,WSW,240,8.0,0.0,63,0.00,,,0.00,WeatherTracker,2013-03-10 00:50:00,
2013-03-09 16:55:00,57.8,46.1,30.23,West,264,7.0,0.0,65,0.00,,,0.00,WeatherTracker,2013-03-10 00:55:00,
2013-03-09 17:00:00,58.1,45.1,30.23,WSW,243,8.0,0.0,62,0.00,,,0.00,WeatherTracker,2013-03-10 01:00:00,
2013-03-09 17:05:00,58.7,45.3,30.23,West,270,5.0,0.0,61,0.00,,,0.00,WeatherTracker,2013-03-10 01:05:00,
2013-03-09 17:10:00,58.7,45.7,30.23,NW,311,4.0,0.0,62,0.00,,,0.00,WeatherTracker,2013-03-10 01:10:00,
2013-03-09 17:15:00,58.6,45.6,30.23,West,269,12.0,0.0,62,0.00,,,0.00,WeatherTracker,2013-03-10 01:15:00,
2013-03-09 17:20:00,58.3,46.2,30.23,WNW,283,3.0,0.0,64,0.00,,,0.00,WeatherTracker,2013-03-10 01:20:00,
2013-03-09 17:25:00,57.9,46.6,30.23,WNW,290,5.0,0.0,66,0.00,,,0.00,WeatherTracker,2013-03-10 01:25:00,
2013-03-09 17:30:00,57.9,47.0,30.23,WNW,303,6.0,0.0,67,0.00,,,0.00,WeatherTracker,2013-03-10 01:30:00,
2013-03-09 17:35:00,57.8,46.9,30.23,WNW,290,8.0,0.0,67,0.00,,,0.00,WeatherTracker,2013-03-10 01:35:00,
2013-03-09 17:40:00,57.6,46.7,30.23,West,267,6.0,0.0,67,0.00,,,0.00,WeatherTracker,2013-03-10 01:40:00,
2013-03-09 17:45:00,57.2,46.7,30.24,West,274,3.0,0.0,68,0.00,,,0.00,WeatherTracker,2013-03-10 01:45:00,
2013-03-09 17:51:00,56.8,46.7,30.24,WNW,285,6.0,0.0,69,0.00,,,0.00,WeatherTracker,2013-03-10 01:51:00,
2013-03-09 17:56:00,56.7,46.3,30.24,West,262,0.0,0.0,68,0.00,,,0.00,WeatherTracker,2013-03-10 01:56:00,
2013-03-09 18:01:00,56.6,46.2,30.24,WSW,250,0.0,0.0,68,0.00,,,0.00,WeatherTracker,2013-03-10 02:01:00,
2013-03-09 18:06:00,56.7,45.9,30.24,ESE,110,0.0,0.0,67,0.00,,,0.00,WeatherTracker,2013-03-10 02:06:00,
2013-03-09 18:11:00,56.7,45.5,30.24,SSE,167,0.0,0.0,66,0.00,,,0.00,WeatherTracker,2013-03-10 02:11:00,
2013-03-09 18:16:00,56.5,45.3,30.24,SE,124,0.0,0.0,66,0.00,,,0.00,WeatherTracker,2013-03-10 02:16:00,
2013-03-09 18:21:00,56.4,44.8,30.24,WSW,248,0.0,0.0,65,0.00,,,0.00,WeatherTracker,2013-03-10 02:21:00,
2013-03-09 18:26:00,56.3,45.1,30.25,WSW,256,1.0,0.0,66,0.00,,,0.00,WeatherTracker,2013-03-10 02:26:00,
2013-03-09 18:31:00,55.4,45.4,30.25,WNW,288,3.0,0.0,69,0.00,,,0.00,WeatherTracker,2013-03-10 02:31:00,
2013-03-09 18:36:00,54.5,45.7,30.25,WNW,291,8.0,0.0,72,0.00,,,0.00,WeatherTracker,2013-03-10 02:36:00,
2013-03-09 18:41:00,54.2,45.7,30.25,SW,229,6.0,0.0,73,0.00,,,0.00,WeatherTracker,2013-03-10 02:41:00,
2013-03-09 18:46:00,53.9,45.8,30.25,NNE,18,0.0,0.0,74,0.00,,,0.00,WeatherTracker,2013-03-10 02:46:00,
2013-03-09 18:51:00,53.3,45.6,30.25,WNW,291,7.0,0.0,75,0.00,,,0.00,WeatherTracker,2013-03-10 02:51:00,
2013-03-09 18:56:00,52.6,45.6,30.25,WSW,238,10.0,0.0,77,0.00,,,0.00,WeatherTracker,2013-03-10 02:56:00,
2013-03-09 19:01:00,52.3,45.6,30.25,WNW,284,8.0,0.0,78,0.00,,,0.00,WeatherTracker,2013-03-10 03:01:00,
2013-03-09 19:06:00,52.2,45.5,30.25,WNW,284,7.0,0.0,78,0.00,,,0.00,WeatherTracker,2013-03-10 03:06:00,
2013-03-09 19:11:00,52.4,45.7,30.25,WNW,284,2.0,0.0,78,0.00,,,0.00,WeatherTracker,2013-03-10 03:11:00,
2013-03-09 19:16:00,52.3,45.6,30.25,WNW,285,0.0,0.0,78,0.00,,,0.00,WeatherTracker,2013-03-10 03:16:00,
2013-03-09 19:21:00,52.3,45.6,30.25,West,281,2.0,0.0,78,0.00,,,0.00,WeatherTracker,2013-03-10 03:21:00,
2013-03-09 19:26:00,52.2,45.5,30.25,South,177,0.0,0.0,78,0.00,,,0.00,WeatherTracker,2013-03-10 03:26:00,
2013-03-09 19:31:00,52.1,45.5,30.25,WSW,257,0.0,0.0,78,0.00,,,0.00,WeatherTracker,2013-03-10 03:31:00,
2013-03-09 19:36:00,52.2,45.5,30.25,NNW,345,0.0,0.0,78,0.00,,,0.00,WeatherTracker,2013-03-10 03:36:00,
2013-03-09 19:41:00,52.3,45.3,30.25,NW,309,0.0,0.0,77,0.00,,,0.00,WeatherTracker,2013-03-10 03:41:00,
2013-03-09 19:46:00,52.5,45.5,30.26,NW,312,0.0,0.0,77,0.00,,,0.00,WeatherTracker,2013-03-10 03:46:00,
2013-03-09 19:51:00,52.5,45.5,30.26,West,264,0.0,0.0,77,0.00,,,0.00,WeatherTracker,2013-03-10 03:51:00,
2013-03-09 19:57:00,52.7,45.3,30.26,WSW,249,1.0,0.0,76,0.00,,,0.00,WeatherTracker,2013-03-10 03:57:00,
2013-03-09 20:02:00,52.8,45.1,30.26,WSW,242,0.0,0.0,75,0.00,,,0.00,WeatherTracker,2013-03-10 04:02:00,
2013-03-09 20:07:00,52.9,44.5,30.26,WSW,255,1.0,0.0,73,0.00,,,0.00,WeatherTracker,2013-03-10 04:07:00,
2013-03-09 20:12:00,53.1,44.3,30.26,SW,226,2.0,0.0,72,0.00,,,0.00,WeatherTracker,2013-03-10 04:12:00,
2013-03-09 20:17:00,53.2,44.4,30.26,West,259,5.0,0.0,72,0.00,,,0.00,WeatherTracker,2013-03-10 04:17:00,
2013-03-09 20:22:00,53.1,44.3,30.27,WNW,289,3.0,0.0,72,0.00,,,0.00,WeatherTracker,2013-03-10 04:22:00,
2013-03-09 20:27:00,53.0,44.2,30.27,WSW,238,0.0,0.0,72,0.00,,,0.00,WeatherTracker,2013-03-10 04:27:00,
2013-03-09 20:32:00,52.9,44.1,30.27,WSW,245,1.0,0.0,72,0.00,,,0.00,WeatherTracker,2013-03-10 04:32:00,
2013-03-09 20:37:00,52.8,44.4,30.27,SW,231,5.0,0.0,73,0.00,,,0.00,WeatherTracker,2013-03-10 04:37:00,
2013-03-09 20:42:00,52.8,44.0,30.27,NW,314,0.0,0.0,72,0.00,,,0.00,WeatherTracker,2013-03-10 04:42:00,
2013-03-09 20:47:00,52.6,44.6,30.27,NNW,336,2.0,0.0,74,0.00,,,0.00,WeatherTracker,2013-03-10 04:47:00,
2013-03-09 20:52:00,52.4,44.7,30.27,NNW,337,1.0,0.0,75,0.00,,,0.00,WeatherTracker,2013-03-10 04:52:00,
2013-03-09 20:57:00,52.2,44.5,30.27,North,351,2.0,0.0,75,0.00,,,0.00,WeatherTracker,2013-03-10 04:57:00,
2013-03-09 21:00:00,52.1,44.4,30.27,NNW,328,1.0,0.0,75,0.00,,,0.00,WeatherTracker,2013-03-10 05:00:00,
2013-03-09 21:05:00,52.0,44.3,30.27,NW,309,2.0,0.0,75,0.00,,,0.00,WeatherTracker,2013-03-10 05:05:00,
2013-03-09 21:10:00,52.1,44.4,30.27,WNW,284,1.0,0.0,75,0.00,,,0.00,WeatherTracker,2013-03-10 05:10:00,
2013-03-09 21:15:00,52.2,44.2,30.27,NW,309,2.0,0.0,74,0.00,,,0.00,WeatherTracker,2013-03-10 05:15:00,
2013-03-09 21:21:00,52.3,43.9,30.27,West,278,0.0,0.0,73,0.00,,,0.00,WeatherTracker,2013-03-10 05:21:00,
2013-03-09 21:26:00,52.2,43.8,30.28,WNW,282,0.0,0.0,73,0.00,,,0.00,WeatherTracker,2013-03-10 05:26:00,
2013-03-09 21:31:00,52.1,44.1,30.28,West,281,0.0,0.0,74,0.00,,,0.00,WeatherTracker,2013-03-10 05:31:00,
2013-03-09 21:36:00,52.2,44.5,30.28,SSE,152,0.0,0.0,75,0.00,,,0.00,WeatherTracker,2013-03-10 05:36:00,
2013-03-09 21:41:00,52.1,44.4,30.28,ESE,118,0.0,0.0,75,0.00,,,0.00,WeatherTracker,2013-03-10 05:41:00,
2013-03-09 21:46:00,51.8,44.1,30.28,NNE,25,0.0,0.0,75,0.00,,,0.00,WeatherTracker,2013-03-10 05:46:00,
2013-03-09 21:51:00,51.6,44.3,30.29,NNE,27,0.0,0.0,76,0.00,,,0.00,WeatherTracker,2013-03-10 05:51:00,
2013-03-09 21:56:00,51.6,44.3,30.28,West,271,0.0,0.0,76,0.00,,,0.00,WeatherTracker,2013-03-10 05:56:00,
2013-03-09 22:01:00,51.5,44.5,30.28,West,276,0.0,0.0,77,0.00,,,0.00,WeatherTracker,2013-03-10 06:01:00,
2013-03-09 22:06:00,51.4,44.4,30.28,West,276,0.0,0.0,77,0.00,,,0.00,WeatherTracker,2013-03-10 06:06:00,
2013-03-09 22:11:00,51.1,43.8,30.28,West,265,0.0,0.0,76,0.00,,,0.00,WeatherTracker,2013-03-10 06:11:00,
2013-03-09 22:16:00,51.0,44.0,30.28,SSW,197,0.0,0.0,77,0.00,,,0.00,WeatherTracker,2013-03-10 06:16:00,
2013-03-09 22:21:00,50.9,44.3,30.28,SSW,197,0.0,0.0,78,0.00,,,0.00,WeatherTracker,2013-03-10 06:21:00,
2013-03-09 22:26:00,50.9,44.3,30.28,SSW,197,0.0,0.0,78,0.00,,,0.00,WeatherTracker,2013-03-10 06:26:00,
2013-03-09 22:31:00,50.6,43.7,30.28,SSW,197,0.0,0.0,77,0.00,,,0.00,WeatherTracker,2013-03-10 06:31:00,
2013-03-09 22:36:00,50.8,44.5,30.28,ENE,70,1.0,0.0,79,0.00,,,0.00,WeatherTracker,2013-03-10 06:36:00,
2013-03-09 22:41:00,51.3,44.7,30.28,ESE,102,1.0,0.0,78,0.00,,,0.00,WeatherTracker,2013-03-10 06:41:00,
2013-03-09 22:46:00,51.4,44.8,30.28,East,91,0.0,0.0,78,0.00,,,0.00,WeatherTracker,2013-03-10 06:46:00,
2013-03-09 22:51:00,51.3,44.7,30.28,East,91,0.0,0.0,78,0.00,,,0.00,WeatherTracker,2013-03-10 06:51:00,
2013-03-09 22:56:00,51.1,44.5,30.28,SW,215,1.0,0.0,78,0.00,,,0.00,WeatherTracker,2013-03-10 06:56:00,
2013-03-09 23:01:00,50.8,44.5,30.28,SSW,211,0.0,0.0,79,0.00,,,0.00,WeatherTracker,2013-03-10 07:01:00,
2013-03-09 23:06:00,50.5,44.2,30.28,SW,214,0.0,0.0,79,0.00,,,0.00,WeatherTracker,2013-03-10 07:06:00,
2013-03-09 23:12:00,50.2,43.9,30.28,SSE,148,0.0,0.0,79,0.00,,,0.00,WeatherTracker,2013-03-10 07:12:00,
2013-03-09 23:17:00,50.0,43.7,30.29,South,169,0.0,0.0,79,0.00,,,0.00,WeatherTracker,2013-03-10 07:17:00,
2013-03-09 23:22:00,49.9,43.6,30.29,NW,309,2.0,0.0,79,0.00,,,0.00,WeatherTracker,2013-03-10 07:22:00,
2013-03-09 23:27:00,50.1,44.2,30.29,NW,304,0.0,0.0,80,0.00,,,0.00,WeatherTracker,2013-03-10 07:27:00,
2013-03-09 23:32:00,49.9,43.6,30.29,NW,304,0.0,0.0,79,0.00,,,0.00,WeatherTracker,2013-03-10 07:32:00,
2013-03-09 23:37:00,49.6,43.4,30.29,NW,304,0.0,0.0,79,0.00,,,0.00,WeatherTracker,2013-03-10 07:37:00,
2013-03-09 23:42:00,49.6,43.7,30.29,WSW,249,1.0,0.0,80,0.00,,,0.00,WeatherTracker,2013-03-10 07:42:00,
2013-03-09 23:47:00,49.6,43.7,30.29,WSW,255,0.0,0.0,80,0.00,,,0.00,WeatherTracker,2013-03-10 07:47:00,
2013-03-09 23:52:00,49.5,43.9,30.29,NNW,334,0.0,0.0,81,0.00,,,0.00,WeatherTracker,2013-03-10 07:52:00,
2013-03-09 23:57:00,49.5,44.2,30.29,NE,49,1.0,0.0,82,0.00,,,0.00,WeatherTracker,2013-03-10 07:57:00,